[[{"header":{"parameterUnit":"m.s-1","parameterCategory":1,"la1":30.2991,"la2":30.254,"lo1":-89.0895,"lo2":-89.0444,"dy":0.0017,"dx":0.0017,"nx":28,"ny":28,"refTime":"2024-03-08T03:00:00:Z","depth":0,"parameterNumber":2,"parameterNumberName":"U-component_of_WINDS"},"data":[0,0,0,0,0,0,0,0,0,0,0,0,0,0,0,0,0,0,0,0,0,0,0,0,0,0,0,0,0,0,0,0,0,0,0,0,0,0,0,0,0,0,0,0,0,0,0,0,0,0,0,0,0,0,0,0,0,0,2.5999,2.5998,0,2.5972,2.5972,2.5972,2.59,2.5898,2.5897,2.5895,2.587,2.5871,2.5872,0,0,0,0,0,0,0,0,0,0,0,0,0,2.599,2.5991,2.5999,2.5998,2.5998,2.5972,2.5972,2.5971,2.59,2.5898,2.5896,2.5894,2.587,2.5871,2.5872,0,0,0,0,0,0,0,0,0,0,0,0,0,2.5982,2.5991,2.5999,2.5959,2.5955,2.5972,2.5972,2.5971,2.59,2.5898,2.5896,2.5894,2.5869,2.5871,2.5872,2.5925,0,0,2.5875,2.5876,0,0,0,0,0,0,0,0,2.5982,2.5982,2.5965,2.5962,2.5958,2.5937,2.5959,2.5956,2.5901,2.5921,2.5895,2.5892,2.5894,2.5893,2.5893,2.5924,2.5923,2.5875,2.5876,2.5877,2.5877,0,0,0,0,0,0,0,2.5983,2.5983,2.5988,2.5965,2.5961,2.5944,2.594,2.5958,2.5921,2.5919,2.5914,2.5912,2.5892,2.5892,2.5892,2.5923,2.5875,2.5876,2.5877,2.5878,2.5997,2.5999,0,0,0,0,0,0,2.5989,2.5984,2.5989,2.5987,2.5965,2.5946,2.5941,2.5946,2.5921,2.5915,2.5914,2.5909,2.5892,2.5891,2.5891,2.5952,2.5877,2.5878,2.5878,2.5994,2.5997,2.6,0,0,0,0,0,0,2.5989,2.599,2.599,2.5984,2.5983,2.5948,2.5954,2.5947,2.5947,2.5917,2.591,2.5921,2.589,2.5889,2.5917,2.5951,2.5878,2.5879,2.5991,2.5995,2.5999,2.6076,0,0,0,0,0,0,2.5989,2.5991,2.601,2.5985,2.5984,2.6016,2.5956,2.5948,2.5949,2.5942,2.5922,2.5916,2.5888,2.5916,2.5919,2.5951,2.588,2.5988,2.5993,2.5998,2.607,2.6082,2.6092,0,0,0,0,0,2.5989,2.6033,2.6011,2.6012,2.6007,2.6018,2.6017,2.5983,2.5952,2.5972,2.5952,2.5917,2.5947,2.5919,2.5922,2.5955,2.5986,2.5992,2.5997,2.6065,2.6079,2.6091,0,0,0,0,0,0,2.6063,2.6029,2.6005,2.6042,2.6033,2.6006,2.603,2.5999,2.6,2.5994,2.5952,2.5948,2.5982,2.5971,2.5942,2.6006,2.5961,2.5967,2.6012,2.6025,2.6035,2.6037,2.5881,0,0,0,0,0,2.6084,2.6095,2.6065,2.6101,2.6098,2.6065,2.6068,2.6043,2.6033,2.6029,2.6012,2.6004,2.6012,2.6018,2.6023,2.6068,2.6063,2.6092,2.6103,2.6112,2.6118,2.6142,2.6155,2.6018,2.6018,2.6018,0,0,2.6126,2.6109,2.6119,2.6115,2.6106,2.6119,2.6062,2.6079,2.6089,2.6032,2.6057,2.6044,2.6033,2.607,2.6086,2.6062,2.6155,2.6119,2.6127,2.6128,2.6149,2.6162,2.6174,2.6022,2.6021,2.6021,0,0,2.6211,2.6199,2.6228,2.6219,2.6206,2.6184,2.6191,2.6168,2.6157,2.6182,2.614,2.6152,2.6165,2.6159,2.6158,2.6242,2.6209,2.6245,2.6301,2.6324,2.6335,2.6345,2.6375,2.6386,2.6251,2.6251,2.6251,0,2.6266,2.6284,2.6246,2.6266,2.6266,2.6215,2.6244,2.6238,2.6227,2.6229,2.6203,2.6219,2.6208,2.6243,2.6264,2.6264,2.6272,2.6247,2.6337,2.6346,2.6354,2.6382,2.6394,2.6255,2.6255,2.6254,2.6254,0,2.6352,2.6366,2.6391,2.6381,2.6384,2.6408,2.6375,2.6383,2.6357,2.6339,2.6365,2.635,2.6351,2.6358,2.6333,2.639,2.6376,2.6344,2.6297,2.6372,2.6398,2.6408,2.6261,2.626,2.6259,2.6257,0,0,2.6482,2.6452,2.6462,2.6457,2.6439,2.6449,2.6472,2.6473,2.648,2.6475,2.6493,2.6507,2.6477,2.6476,2.645,2.6471,2.6539,2.6437,2.6436,2.6457,2.6602,2.6626,2.6639,2.6518,2.652,2.6521,2.6603,0,2.6562,2.6598,2.6566,2.6608,2.6621,2.6573,2.6593,2.6584,2.6568,2.6576,2.6558,2.6568,2.6528,2.6527,2.6546,2.6527,2.6568,2.6521,2.6535,2.6536,2.654,2.6653,2.6678,2.6756,2.6613,2.6614,2.6616,0,2.666,2.6659,2.6703,2.6683,2.6687,2.6705,2.6704,2.6713,2.6703,2.6689,2.6688,2.6657,2.6679,2.6633,2.6663,2.6632,2.6636,2.6628,2.663,2.663,2.6581,2.6656,2.6779,2.6791,2.6631,2.663,2.6629,0,2.6751,2.6761,2.6788,2.6786,2.6763,2.6777,2.6768,2.6756,2.6759,2.6758,2.676,2.6762,2.6763,2.6766,2.6737,2.6707,2.6771,2.6723,2.6761,2.6762,2.6776,2.6776,2.6903,2.6779,2.6779,2.6779,2.6778,0,2.6844,2.6873,2.6829,2.6846,2.6877,2.684,2.6872,2.6859,2.6848,2.6862,2.6822,2.6836,2.6796,2.6807,2.6784,2.6813,2.6814,2.6804,2.6798,2.6808,2.6809,2.681,2.6804,2.6782,2.6781,2.678,2.678,0,2.6951,2.6922,2.6949,2.6925,2.692,2.6944,2.6924,2.6939,2.692,2.6939,2.6941,2.6911,2.6922,2.6893,2.6899,2.6884,2.6925,2.691,2.6929,2.6924,2.6964,2.696,2.7095,2.7111,2.6978,2.6979,2.698,0,2.7012,2.7033,2.7011,2.7018,2.7011,2.7022,2.7025,2.6989,2.6994,2.6985,2.7002,2.7009,2.7012,2.7031,2.7011,2.7015,2.7,2.7047,2.7001,2.701,2.7001,2.7001,2.7003,2.7057,2.7058,2.706,2.7061,0,2.7123,2.7108,2.7114,2.7115,2.712,2.7119,2.7115,2.7123,2.7085,2.7093,2.7103,2.7106,2.7112,2.712,2.7121,2.7112,2.7081,2.7076,2.7085,2.7095,2.7105,2.7101,2.6955,2.7073,2.7072,2.7071,2.707,2.707,2.7209,2.7226,2.7213,2.7221,2.7215,2.7213,2.7226,2.7209,2.7216,2.7218,2.7197,2.7212,2.7202,2.7199,2.7195,2.7206,2.7185,2.7198,2.7201,2.7205,2.7212,2.7104,2.7206,2.7206,2.7205,2.7205,2.7205,0,2.7318,2.7308,2.7316,2.7312,2.7319,2.7289,2.7283,2.7291,2.7304,2.7298,2.7302,2.7315,2.7322,2.7302,2.7307,2.732,2.7306,2.7323,2.7322,2.732,2.723,2.7222,2.7334,2.7334,2.7334,2.7334,2.7334,2.7334,2.7376,2.7403,2.7387,2.7411,2.7401,2.7415,2.7415,2.7413,2.7408,2.7423,2.7429,2.7416,2.7404,2.7408,2.7414,2.7408,2.7412,2.7434,2.7423,2.7339,2.7327,2.7315,2.7307,2.7435,2.7435,2.7512,2.7513,2.7514]},{"header":{"parameterUnit":"m.s-1","parameterCategory":1,"la1":30.2991,"la2":30.254,"lo1":-89.0895,"lo2":-89.0444,"dy":0.0017,"dx":0.0017,"nx":28,"ny":28,"refTime":"2024-03-08T03:00:00:Z","depth":0,"parameterNumber":3,"parameterNumberName":"V-component_of_WINDS"},"data":[0,0,0,0,0,0,0,0,0,0,0,0,0,0,0,0,0,0,0,0,0,0,0,0,0,0,0,0,0,0,0,0,0,0,0,0,0,0,0,0,0,0,0,0,0,0,0,0,0,0,0,0,0,0,0,0,0,0,5.1258,5.126,0,5.1414,5.1415,5.1417,5.141,5.1408,5.1406,5.1404,5.1557,5.1563,5.1569,0,0,0,0,0,0,0,0,0,0,0,0,0,5.0948,5.0954,5.1258,5.126,5.1262,5.1413,5.1415,5.1418,5.1411,5.1408,5.1405,5.1403,5.1555,5.1563,5.157,0,0,0,0,0,0,0,0,0,0,0,0,0,5.1091,5.0956,5.1257,5.1277,5.128,5.1413,5.1415,5.1418,5.1411,5.1408,5.1405,5.1402,5.1553,5.1562,5.1571,5.1693,0,0,5.1599,5.1603,0,0,0,0,0,0,0,0,5.1083,5.1103,5.1272,5.1276,5.128,5.1389,5.1363,5.151,5.1412,5.1361,5.1404,5.14,5.1504,5.1517,5.1553,5.17,5.1707,5.16,5.1605,5.1609,5.1612,0,0,0,0,0,0,0,5.1073,5.1096,5.1319,5.1274,5.1279,5.1276,5.1292,5.139,5.1449,5.1365,5.1365,5.1384,5.1505,5.1544,5.1556,5.1709,5.16,5.1608,5.1613,5.1617,5.1963,5.1966,0,0,0,0,0,0,5.106,5.1088,5.1314,5.1324,5.1172,5.1284,5.1302,5.1357,5.1448,5.1458,5.1387,5.1383,5.153,5.1546,5.1562,5.1711,5.1609,5.1618,5.1623,5.1959,5.1964,5.1968,0,0,0,0,0,0,5.1053,5.108,5.1308,5.1206,5.1235,5.1293,5.1354,5.1362,5.1401,5.1464,5.1474,5.1416,5.1528,5.1549,5.1661,5.1716,5.1622,5.163,5.1955,5.1961,5.1966,5.2009,0,0,0,0,0,0,5.1045,5.1078,5.1127,5.1207,5.124,5.1406,5.1358,5.1367,5.1418,5.1415,5.1494,5.1504,5.1527,5.1647,5.167,5.1727,5.1637,5.195,5.1957,5.1964,5.2003,5.2015,5.2026,0,0,0,0,0,5.1034,5.1131,5.1129,5.1156,5.1302,5.141,5.1428,5.1454,5.1422,5.1471,5.1511,5.1502,5.1706,5.1659,5.1684,5.1745,5.1947,5.1955,5.1963,5.1998,5.2013,5.2026,0,0,0,0,0,0,5.1054,5.1142,5.1141,5.1268,5.1332,5.1408,5.147,5.147,5.1542,5.1536,5.1563,5.1581,5.1693,5.173,5.1675,5.1867,5.1822,5.1836,5.1839,5.1854,5.1865,5.1854,5.1645,0,0,0,0,0,5.1073,5.1155,5.1227,5.1332,5.1364,5.1412,5.1459,5.1474,5.154,5.1567,5.1615,5.1678,5.1756,5.1807,5.1882,5.2008,5.2024,5.2062,5.2073,5.2082,5.2094,5.2162,5.218,5.1995,5.1995,5.1995,0,0,5.1114,5.1172,5.1222,5.1338,5.1389,5.1471,5.1434,5.1523,5.1584,5.1579,5.1689,5.1726,5.1797,5.1917,5.1971,5.1951,5.2149,5.2093,5.21,5.2107,5.2173,5.219,5.2206,5.2001,5.2,5.1999,0,0,5.123,5.1283,5.1377,5.1429,5.1507,5.1538,5.156,5.1638,5.1663,5.1773,5.1772,5.1843,5.1977,5.2028,5.2072,5.2207,5.2201,5.223,5.2291,5.2357,5.2371,5.2384,5.2432,5.2449,5.2242,5.2242,5.2242,0,5.1271,5.1397,5.1424,5.1514,5.1564,5.1566,5.166,5.1708,5.1806,5.184,5.1815,5.1984,5.2032,5.2163,5.2196,5.2231,5.2257,5.2222,5.2368,5.2381,5.2393,5.2439,5.2457,5.2245,5.2244,5.2244,5.2244,0,5.1442,5.1529,5.1595,5.1692,5.1749,5.184,5.188,5.1934,5.1943,5.1976,5.2087,5.2145,5.2233,5.2264,5.2274,5.2397,5.2381,5.2362,5.2317,5.2414,5.2457,5.2475,5.2249,5.2248,5.2247,5.2246,0,0,5.1576,5.1688,5.1711,5.1755,5.1841,5.1908,5.1998,5.2086,5.2131,5.2198,5.2274,5.2387,5.237,5.2419,5.2434,5.2492,5.2595,5.2466,5.2468,5.2488,5.2733,5.2748,5.2768,5.2591,5.2595,5.2598,5.2727,0,5.1702,5.1865,5.1892,5.2034,5.2114,5.2116,5.2194,5.2254,5.2287,5.2358,5.2393,5.2473,5.2444,5.2474,5.2532,5.257,5.2645,5.2561,5.2661,5.2664,5.2644,5.2791,5.2807,5.2927,5.2745,5.2748,5.275,0,5.187,5.1944,5.2095,5.217,5.2205,5.2275,5.2357,5.2425,5.2493,5.2512,5.2567,5.2575,5.2666,5.2617,5.2743,5.2686,5.2728,5.2752,5.2758,5.2768,5.2713,5.2806,5.2965,5.2984,5.2777,5.2775,5.2773,0,5.1953,5.209,5.2198,5.2235,5.2326,5.2375,5.2414,5.2479,5.2529,5.26,5.2633,5.2712,5.2755,5.2815,5.2843,5.2805,5.2967,5.2921,5.2985,5.2984,5.3019,5.3017,5.3188,5.3045,5.3045,5.3045,5.3044,0,5.2091,5.2183,5.2236,5.2303,5.2405,5.2434,5.2534,5.2572,5.2629,5.2701,5.2706,5.2774,5.2807,5.2878,5.29,5.3,5.302,5.3037,5.3042,5.3037,5.3035,5.3065,5.3058,5.305,5.3049,5.3048,5.3047,0,5.2201,5.2241,5.2359,5.2435,5.2456,5.2528,5.2593,5.2656,5.2688,5.2779,5.2802,5.2851,5.2936,5.297,5.3072,5.3087,5.3203,5.3201,5.3181,5.3182,5.3245,5.3239,5.3442,5.347,5.3308,5.331,5.3311,0,5.2287,5.2358,5.2442,5.2492,5.2534,5.2614,5.2666,5.2696,5.275,5.2832,5.2885,5.297,5.3039,5.3174,5.3217,5.3295,5.3296,5.3361,5.3307,5.33,5.3297,5.3293,5.33,5.3372,5.3373,5.3375,5.3376,0,5.2434,5.245,5.2526,5.261,5.2672,5.2738,5.2803,5.2843,5.2882,5.2942,5.303,5.3084,5.3189,5.3273,5.3354,5.3391,5.339,5.3392,5.3411,5.3408,5.3393,5.3402,5.3209,5.3388,5.3386,5.3386,5.3385,5.3384,5.2535,5.2598,5.2668,5.2752,5.2804,5.2864,5.2928,5.2969,5.3043,5.3133,5.3145,5.3239,5.3303,5.3412,5.3453,5.3525,5.3508,5.3535,5.3542,5.3549,5.3553,5.3381,5.354,5.3539,5.3539,5.3539,5.3539,0,5.2683,5.2728,5.2805,5.2897,5.2963,5.2957,5.3028,5.3083,5.3166,5.3227,5.3296,5.3396,5.3477,5.3527,5.3608,5.3656,5.3657,5.3676,5.3673,5.3682,5.3564,5.354,5.3674,5.3674,5.3674,5.3674,5.3674,5.3674,5.2768,5.2875,5.2899,5.3031,5.3075,5.3169,5.321,5.3265,5.3314,5.3426,5.3494,5.3527,5.3584,5.3669,5.3742,5.3754,5.3784,5.3805,5.3816,5.3704,5.369,5.3677,5.3655,5.3811,5.3811,5.3928,5.3929,5.393]}]]